Location: B?lite?ti
(46.2833°N, 22.7333°E)
Time: 04:50:19
(UTC+00:00)

COSMOS 2406 - Pass Details

Date: 24 January 2021
Orbit: 841 x 866 km, 71.0° (Epoch: 26 February)

Event Time Altitude Azimuth Distance (km) Brightness Sun altitude
Rises 16:39:52 0° 337° (NNW) 3,459 6.5 -13.4°
Reaches altitude 10° 16:42:32 10° 345° (NNW) 2,518 5.7 -13.8°
Maximum altitude 16:47:56 39° 54° (NE) 1,277 3.7 -14.8°
Enters shadow 16:52:22 15° 118° (ESE) 2,192 4.9 -15.5°
